20060208,000000,351292,30.739800,-123.327700,NaN,15.880,33.198,41.780,  NaN,NaN,0.157, NaN, NaN,17.200, NaN,   NaN,14.60,1017.69,69.70,NaN,71.0,NaN,4.1,NaN,60.5,NaN,8.0,NaN,NaN,0.144,NaN,27.0,NaN,NaN,NaN,2,0.7,235958,   NaN,344.8,     NaN,      NaN,NaN,1.5,NaN, NaN,0.183,NaN,NaN, NaN, NaN
20060208,000030,351322,30.739800,-123.327700,NaN,15.871,33.198,41.780,  NaN,NaN,0.165, NaN, NaN,17.200, NaN,   NaN,14.60,1018.18,69.60,NaN,72.0,NaN,2.4,NaN,51.8,NaN,4.8,NaN,NaN,0.154,NaN,355.0,NaN,NaN,NaN,2,0.6,000028,   NaN,333.0,     NaN,      NaN,NaN,1.4,NaN, NaN,0.186,NaN,NaN, NaN, NaN
20060208,000100,351352,30.739800,-123.327700,NaN,15.871,33.198,41.780,  NaN,NaN,0.155, NaN, NaN,17.200, NaN,   NaN,14.60,1017.84,70.00,NaN,82.0,NaN,3.6,NaN,63.3,NaN,7.0,NaN,NaN,0.142,NaN,127.0,NaN,NaN,NaN,2,0.5,000058,   NaN,337.2,     NaN,      NaN,NaN,1.4,NaN, NaN,0.183,NaN,NaN, NaN, NaN
20060208,000130,351382,30.739800,-123.327800,NaN,15.880,33.198,41.780,  NaN,NaN,0.157, NaN, NaN,17.200, NaN,   NaN,14.60,1017.74,70.90,NaN,75.0,NaN,2.9,NaN,69.4,NaN,5.5,NaN,NaN,0.144,NaN,294.0,NaN,NaN,NaN,2,0.9,000128,   NaN,345.4,     NaN,      NaN,NaN,1.0,NaN, NaN,0.182,NaN,NaN, NaN, NaN
20060208,000200,351412,30.739800,-123.327800,NaN,15.880,33.198,41.790,  NaN,NaN,0.162, NaN, NaN,17.200, NaN,   NaN,14.60,1017.95,70.00,NaN,77.0,NaN,3.6,NaN,64.0,NaN,6.9,NaN,NaN,0.151,NaN,352.0,NaN,NaN,NaN,2,0.4,000158,   NaN,343.7,     NaN,      NaN,NaN,1.3,NaN, NaN,0.184,NaN,NaN, NaN, NaN
20060208,000230,351442,30.740000,-123.327800,NaN,15.880,33.198,41.790,  NaN,NaN,0.159, NaN, NaN,17.200, NaN,   NaN,14.60,1018.00,71.40,NaN,72.0,NaN,2.7,NaN,60.1,NaN,5.3,NaN,NaN,0.147,NaN,291.0,NaN,NaN,NaN,2,0.9,000228,   NaN,338.9,     NaN,      NaN,NaN,1.1,NaN, NaN,0.183,NaN,NaN, NaN, NaN
20060208,000300,351472,30.740000,-123.327800,NaN,15.900,33.189,41.800,  NaN,NaN,0.161, NaN, NaN,17.200, NaN,   NaN,14.60,1018.03,70.00,NaN,69.0,NaN,1.8,NaN,58.4,NaN,3.6,NaN,NaN,0.149,NaN,165.0,NaN,NaN,NaN,2,1.1,000258,   NaN,332.6,     NaN,      NaN,NaN,1.2,NaN, NaN,0.183,NaN,NaN, NaN, NaN
20060208,000330,351502,30.740000,-123.327800,NaN,15.930,33.189,41.820,  NaN,NaN,0.162, NaN, NaN,17.200, NaN,   NaN,14.60,1017.26,69.10,NaN,104.0,NaN,3.5,NaN,84.3,NaN,6.7,NaN,NaN,0.151,NaN,56.0,NaN,NaN,NaN,2,1.3,000328,   NaN,329.4,     NaN,      NaN,NaN,0.5,NaN, NaN,0.182,NaN,NaN, NaN, NaN
20060208,000400,351532,30.740000,-123.328000,NaN,15.960,33.179,41.850,  NaN,NaN,0.162, NaN, NaN,17.200, NaN,   NaN,14.60,1017.55,69.00,NaN,96.0,NaN,3.0,NaN,70.8,NaN,5.9,NaN,NaN,0.150,NaN,214.0,NaN,NaN,NaN,2,0.9,000358,   NaN,326.1,     NaN,      NaN,NaN,0.2,NaN, NaN,0.184,NaN,NaN, NaN, NaN
20060208,000430,351562,30.739800,-123.328000,NaN,15.979,33.189,41.870,  NaN,NaN,0.159, NaN, NaN,17.200, NaN,   NaN,14.60,1018.13,69.20,NaN,91.0,NaN,2.0,NaN,61.3,NaN,3.8,NaN,NaN,0.147,NaN,217.0,NaN,NaN,NaN,2,0.4,000428,   NaN,324.3,     NaN,      NaN,NaN,0.1,NaN, NaN,0.182,NaN,NaN, NaN, NaN
20060208,000500,351592,30.739800,-123.328000,NaN,16.009,33.189,41.900,  NaN,NaN,0.161, NaN, NaN,17.300, NaN,   NaN,14.60,1017.94,70.10,NaN,93.0,NaN,3.5,NaN,65.9,NaN,6.8,NaN,NaN,0.149,NaN,151.0,NaN,NaN,NaN,2,1.0,000458,   NaN,324.5,     NaN,      NaN,NaN,0.4,NaN, NaN,0.182,NaN,NaN, NaN, NaN
20060208,000530,351622,30.739800,-123.328000,NaN,16.009,33.198,41.910,  NaN,NaN,0.163, NaN, NaN,17.300, NaN,   NaN,14.60,1017.96,71.10,NaN,94.0,NaN,3.5,NaN,70.1,NaN,6.8,NaN,NaN,0.152,NaN,265.0,NaN,NaN,NaN,2,0.7,000528,   NaN,330.2,     NaN,      NaN,NaN,0.6,NaN, NaN,0.183,NaN,NaN, NaN, NaN
20060208,000600,351652,30.739800,-123.328000,NaN,16.009,33.198,41.910,  NaN,NaN,0.157, NaN, NaN,17.300, NaN,   NaN,14.60,1017.92,69.50,NaN,72.0,NaN,2.8,NaN,58.0,NaN,5.5,NaN,NaN,0.145,NaN,153.0,NaN,NaN,NaN,2,1.0,000558,   NaN,336.0,     NaN,      NaN,NaN,0.6,NaN, NaN,0.181,NaN,NaN, NaN, NaN
20060208,000630,351682,30.739800,-123.328000,NaN,16.009,33.198,41.910,  NaN,NaN,0.163, NaN, NaN,17.300, NaN,   NaN,14.60,1017.61,69.20,NaN,90.0,NaN,3.5,NaN,75.4,NaN,6.7,NaN,NaN,0.152,NaN,147.0,NaN,NaN,NaN,2,0.7,000628,   NaN,339.4,     NaN,      NaN,NaN,0.2,NaN, NaN,0.179,NaN,NaN, NaN, NaN
20060208,000700,351712,30.739700,-123.328000,NaN,16.029,33.198,41.920,  NaN,NaN,0.162, NaN, NaN,17.300, NaN,   NaN,14.60,1018.31,69.70,NaN,65.0,NaN,1.5,NaN,56.8,NaN,3.0,NaN,NaN,0.151,NaN,183.0,NaN,NaN,NaN,2,0.7,000658,   NaN,339.5,     NaN,      NaN,NaN,0.2,NaN, NaN,0.182,NaN,NaN, NaN, NaN
20060208,000730,351742,30.739700,-123.328000,NaN,16.039,33.198,41.940,  NaN,NaN,0.162, NaN, NaN,17.300, NaN,   NaN,14.80,1017.89,72.00,NaN,62.0,NaN,2.7,NaN,50.0,NaN,5.2,NaN,NaN,0.151,NaN,167.0,NaN,NaN,NaN,2,0.7,000728,   NaN,341.2,     NaN,      NaN,NaN,0.4,NaN, NaN,0.182,NaN,NaN, NaN, NaN
20060208,000800,351772,30.739700,-123.328000,NaN,16.049,33.198,41.950,  NaN,NaN,0.157, NaN, NaN,17.300, NaN,   NaN,14.80,1017.80,72.30,NaN,90.0,NaN,3.2,NaN,76.6,NaN,6.3,NaN,NaN,0.144,NaN,187.0,NaN,NaN,NaN,2,0.4,000758,   NaN,343.1,     NaN,      NaN,NaN,0.5,NaN, NaN,0.181,NaN,NaN, NaN, NaN
20060208,000830,351802,30.739700,-123.328000,NaN,16.049,33.198,41.950,  NaN,NaN,0.166, NaN, NaN,17.300, NaN,   NaN,14.80,1018.10,72.70,NaN,58.0,NaN,3.0,NaN,48.3,NaN,5.8,NaN,NaN,0.155,NaN,243.0,NaN,NaN,NaN,2,0.5,000828,   NaN,346.1,     NaN,      NaN,NaN,0.4,NaN, NaN,0.184,NaN,NaN, NaN, NaN
20060208,000900,351832,30.739700,-123.328200,NaN,16.029,33.208,41.940,  NaN,NaN,0.166, NaN, NaN,17.300, NaN,   NaN,14.80,1017.85,72.00,NaN,73.0,NaN,4.0,NaN,67.1,NaN,7.8,NaN,NaN,0.155,NaN,140.0,NaN,NaN,NaN,2,0.7,000858,   NaN,349.2,     NaN,      NaN,NaN,0.5,NaN, NaN,0.181,NaN,NaN, NaN, NaN
20060208,000930,351862,30.739700,-123.328200,NaN,16.019,33.208,41.930,  NaN,NaN,0.169, NaN, NaN,17.300, NaN,   NaN,14.60,1017.59,70.60,NaN,77.0,NaN,3.8,NaN,75.6,NaN,7.5,NaN,NaN,0.159,NaN,166.0,NaN,NaN,NaN,2,0.7,000928,   NaN,353.4,     NaN,      NaN,NaN,0.7,NaN, NaN,0.183,NaN,NaN, NaN, NaN
20060208,001000,351892,30.739500,-123.328200,NaN,16.039,33.198,41.930,  NaN,NaN,0.167, NaN, NaN,17.300, NaN,   NaN,14.80,1017.60,70.00,NaN,79.0,NaN,4.6,NaN,81.4,NaN,9.0,NaN,NaN,0.156,NaN,200.0,NaN,NaN,NaN,2,1.0,000958,   NaN,356.0,     NaN,      NaN,NaN,0.4,NaN, NaN,0.183,NaN,NaN, NaN, NaN
20060208,001030,351922,30.739500,-123.328200,NaN,16.039,33.198,41.940,  NaN,NaN,0.162, NaN, NaN,17.400, NaN,   NaN,14.80,1017.95,70.30,NaN,81.0,NaN,3.7,NaN,80.0,NaN,7.1,NaN,NaN,0.151,NaN,203.0,NaN,NaN,NaN,2,0.9,001028,   NaN,351.7,     NaN,      NaN,NaN,-0.4,NaN, NaN,0.182,NaN,NaN, NaN, NaN
20060208,001100,351952,30.739300,-123.328200,NaN,16.049,33.198,41.950,  NaN,NaN,0.162, NaN, NaN,17.300, NaN,   NaN,14.60,1017.93,70.50,NaN,71.0,NaN,2.4,NaN,64.6,NaN,4.7,NaN,NaN,0.150,NaN,179.0,NaN,NaN,NaN,2,0.9,001058,   NaN,343.0,     NaN,      NaN,NaN,0.0,NaN, NaN,0.181,NaN,NaN, NaN, NaN
20060208,001130,351982,30.739300,-123.328300,NaN,16.039,33.198,41.940,  NaN,NaN,0.158, NaN, NaN,17.400, NaN,   NaN,14.80,1017.85,72.80,NaN,95.0,NaN,2.9,NaN,79.4,NaN,5.7,NaN,NaN,0.146,NaN,168.0,NaN,NaN,NaN,2,1.0,001128,   NaN,334.3,     NaN,      NaN,NaN,0.5,NaN, NaN,0.179,NaN,NaN, NaN, NaN
20060208,001200,352012,30.739300,-123.328300,NaN,16.009,33.218,41.930,  NaN,NaN,0.171, NaN, NaN,17.300, NaN,   NaN,14.80,1017.86,71.00,NaN,94.0,NaN,3.8,NaN,66.3,NaN,7.5,NaN,NaN,0.161,NaN,194.0,NaN,NaN,NaN,2,0.5,001158,   NaN,328.5,     NaN,      NaN,NaN,0.2,NaN, NaN,0.183,NaN,NaN, NaN, NaN
20060208,001230,352042,30.739200,-123.328200,NaN,16.019,33.198,41.920,  NaN,NaN,0.162, NaN, NaN,17.300, NaN,   NaN,14.80,1018.10,69.10,NaN,104.0,NaN,3.1,NaN,76.7,NaN,6.0,NaN,NaN,0.150,NaN,166.0,NaN,NaN,NaN,2,0.9,001228,   NaN,324.3,     NaN,      NaN,NaN,0.3,NaN, NaN,0.180,NaN,NaN, NaN, NaN
20060208,001300,352072,30.739200,-123.328300,NaN,16.009,33.208,41.910,  NaN,NaN,0.164, NaN, NaN,17.300, NaN,   NaN,14.60,1017.85,69.60,NaN,98.0,NaN,3.5,NaN,66.0,NaN,6.9,NaN,NaN,0.153,NaN,191.0,NaN,NaN,NaN,2,0.8,001258,   NaN,321.4,     NaN,      NaN,NaN,0.2,NaN, NaN,0.182,NaN,NaN, NaN, NaN
20060208,001330,352102,30.739000,-123.328300,NaN,15.999,33.198,41.900,  NaN,NaN,0.163, NaN, NaN,17.300, NaN,   NaN,14.60,1017.90,69.70,NaN,90.0,NaN,3.3,NaN,64.7,NaN,6.3,NaN,NaN,0.152,NaN,316.0,NaN,NaN,NaN,2,0.7,001328,   NaN,328.5,     NaN,      NaN,NaN,1.0,NaN, NaN,0.183,NaN,NaN, NaN, NaN
20060208,001400,352132,30.739200,-123.328300,NaN,16.009,33.198,41.910,  NaN,NaN,0.168, NaN, NaN,17.300, NaN,   NaN,14.60,1018.32,69.90,NaN,65.0,NaN,2.7,NaN,51.6,NaN,5.2,NaN,NaN,0.157,NaN,316.0,NaN,NaN,NaN,2,0.9,001358,   NaN,337.6,     NaN,      NaN,NaN,1.9,NaN, NaN,0.182,NaN,NaN, NaN, NaN
20060208,001430,352162,30.739200,-123.328500,NaN,16.039,33.198,41.930,  NaN,NaN,0.169, NaN, NaN,17.300, NaN,   NaN,14.60,1017.60,68.70,NaN,71.0,NaN,3.4,NaN,60.3,NaN,6.6,NaN,NaN,0.159,NaN,353.0,NaN,NaN,NaN,2,1.0,001428,   NaN,341.0,     NaN,      NaN,NaN,2.4,NaN, NaN,0.180,NaN,NaN, NaN, NaN
20060208,001500,352192,30.739300,-123.328500,NaN,16.039,33.198,41.940,  NaN,NaN,0.164, NaN, NaN,17.400, NaN,   NaN,14.60,1017.59,69.00,NaN,77.0,NaN,3.8,NaN,72.5,NaN,7.4,NaN,NaN,0.153,NaN,342.0,NaN,NaN,NaN,2,1.6,001458,   NaN,343.4,     NaN,      NaN,NaN,2.5,NaN, NaN,0.180,NaN,NaN, NaN, NaN
20060208,001530,352222,30.739500,-123.328700,NaN,16.039,33.198,41.940,  NaN,NaN,0.163, NaN, NaN,17.400, NaN,   NaN,14.60,1018.11,70.30,NaN,60.0,NaN,1.4,NaN,66.0,NaN,2.6,NaN,NaN,0.152,NaN,335.0,NaN,NaN,NaN,2,1.1,001528,   NaN,344.8,     NaN,      NaN,NaN,2.5,NaN, NaN,0.183,NaN,NaN, NaN, NaN
20060208,001600,352252,30.739700,-123.328700,NaN,16.029,33.198,41.940,  NaN,NaN,0.157, NaN, NaN,17.400, NaN,   NaN,14.60,1017.85,70.60,NaN,69.0,NaN,2.5,NaN,68.4,NaN,4.8,NaN,NaN,0.144,NaN,336.0,NaN,NaN,NaN,2,1.2,001558,   NaN,346.0,     NaN,      NaN,NaN,2.4,NaN, NaN,0.181,NaN,NaN, NaN, NaN
20060208,001630,352282,30.739800,-123.328700,NaN,16.039,33.198,41.950,  NaN,NaN,0.159, NaN, NaN,17.400, NaN,   NaN,14.80,1018.20,70.10,NaN,62.0,NaN,2.5,NaN,61.5,NaN,4.8,NaN,NaN,0.147,NaN,344.0,NaN,NaN,NaN,2,1.3,001628,   NaN,345.8,     NaN,      NaN,NaN,2.3,NaN, NaN,0.181,NaN,NaN, NaN, NaN
20060208,001700,352312,30.740000,-123.328800,NaN,16.039,33.198,41.940,  NaN,NaN,0.160, NaN, NaN,17.400, NaN,   NaN,14.80,1017.95,71.90,NaN,65.0,NaN,2.9,NaN,59.8,NaN,5.6,NaN,NaN,0.148,NaN,7.0,NaN,NaN,NaN,2,0.9,001658,   NaN,346.5,     NaN,      NaN,NaN,2.2,NaN, NaN,0.181,NaN,NaN, NaN, NaN
20060208,001730,352342,30.740000,-123.328800,NaN,16.029,33.208,41.940,  NaN,NaN,0.153, NaN, NaN,17.400, NaN,   NaN,14.60,1017.46,69.70,NaN,78.0,NaN,2.4,NaN,76.9,NaN,4.7,NaN,NaN,0.139,NaN,345.0,NaN,NaN,NaN,2,1.0,001728,   NaN,346.9,     NaN,      NaN,NaN,1.9,NaN, NaN,0.180,NaN,NaN, NaN, NaN
20060208,001800,352372,30.740200,-123.328800,NaN,15.999,33.208,41.910,  NaN,NaN,0.155, NaN, NaN,17.400, NaN,   NaN,14.60,1017.80,69.50,NaN,67.0,NaN,4.3,NaN,62.8,NaN,8.4,NaN,NaN,0.142,NaN,353.0,NaN,NaN,NaN,2,1.4,001758,   NaN,346.9,     NaN,      NaN,NaN,1.8,NaN, NaN,0.180,NaN,NaN, NaN, NaN
20060208,001830,352402,30.740300,-123.328800,NaN,15.969,33.198,41.880,  NaN,NaN,0.153, NaN, NaN,17.300, NaN,   NaN,14.60,1017.68,69.00,NaN,67.0,NaN,4.4,NaN,61.0,NaN,8.5,NaN,NaN,0.140,NaN,5.0,NaN,NaN,NaN,2,1.1,001828,   NaN,347.1,     NaN,      NaN,NaN,1.7,NaN, NaN,0.181,NaN,NaN, NaN, NaN
20060208,001900,352432,30.740300,-123.328800,NaN,15.989,33.198,41.890,  NaN,NaN,0.159, NaN, NaN,17.300, NaN,   NaN,14.60,1018.15,69.40,NaN,69.0,NaN,3.2,NaN,64.8,NaN,6.2,NaN,NaN,0.147,NaN,323.0,NaN,NaN,NaN,2,1.1,001858,   NaN,346.2,     NaN,      NaN,NaN,1.7,NaN, NaN,0.181,NaN,NaN, NaN, NaN
20060208,001930,352462,30.740500,-123.328800,NaN,15.979,33.198,41.890,  NaN,NaN,0.157, NaN, NaN,17.300, NaN,   NaN,14.60,1018.16,70.00,NaN,69.0,NaN,2.0,NaN,64.8,NaN,3.8,NaN,NaN,0.145,NaN,358.0,NaN,NaN,NaN,2,0.7,001928,   NaN,345.9,     NaN,      NaN,NaN,1.7,NaN, NaN,0.182,NaN,NaN, NaN, NaN
20060208,002000,352492,30.740500,-123.329000,NaN,15.960,33.208,41.870,  NaN,NaN,0.158, NaN, NaN,17.300, NaN,   NaN,14.80,1017.69,70.50,NaN,101.0,NaN,3.4,NaN,95.0,NaN,6.6,NaN,NaN,0.146,NaN,79.0,NaN,NaN,NaN,2,1.0,001958,   NaN,345.4,     NaN,      NaN,NaN,1.8,NaN, NaN,0.183,NaN,NaN, NaN, NaN
20060208,002030,352522,30.740700,-123.329000,NaN,15.969,33.198,41.870,  NaN,NaN,0.154, NaN, NaN,17.300, NaN,   NaN,14.60,1017.67,69.00,NaN,80.0,NaN,3.4,NaN,73.4,NaN,6.6,NaN,NaN,0.141,NaN,337.0,NaN,NaN,NaN,2,1.0,002028,   NaN,344.8,     NaN,      NaN,NaN,2.0,NaN, NaN,0.182,NaN,NaN, NaN, NaN
20060208,002100,352552,30.740800,-123.329000,NaN,15.989,33.198,41.890,  NaN,NaN,0.158, NaN, NaN,17.300, NaN,   NaN,14.80,1018.03,72.00,NaN,66.0,NaN,1.8,NaN,70.5,NaN,3.5,NaN,NaN,0.146,NaN,331.0,NaN,NaN,NaN,2,1.3,002058,   NaN,344.6,     NaN,      NaN,NaN,2.2,NaN, NaN,0.181,NaN,NaN, NaN, NaN
20060208,002130,352582,30.741000,-123.329000,NaN,15.979,33.198,41.890,  NaN,NaN,0.157, NaN, NaN,17.400, NaN,   NaN,14.80,1017.69,71.80,NaN,72.0,NaN,3.1,NaN,65.8,NaN,6.0,NaN,NaN,0.144,NaN,4.0,NaN,NaN,NaN,2,1.1,002128,   NaN,343.8,     NaN,      NaN,NaN,2.2,NaN, NaN,0.182,NaN,NaN, NaN, NaN
20060208,002200,352612,30.741200,-123.329000,NaN,15.989,33.198,41.890,  NaN,NaN,0.159, NaN, NaN,17.400, NaN,   NaN,14.80,1017.73,71.90,NaN,78.0,NaN,3.2,NaN,75.5,NaN,6.2,NaN,NaN,0.147,NaN,354.0,NaN,NaN,NaN,2,1.6,002158,   NaN,342.8,     NaN,      NaN,NaN,2.1,NaN, NaN,0.179,NaN,NaN, NaN, NaN
20060208,002230,352642,30.741300,-123.329200,NaN,16.019,33.189,41.910,  NaN,NaN,0.153, NaN, NaN,17.300, NaN,   NaN,14.80,1018.09,72.90,NaN,64.0,NaN,4.0,NaN,51.3,NaN,7.8,NaN,NaN,0.139,NaN,353.0,NaN,NaN,NaN,2,0.9,002228,   NaN,341.4,     NaN,      NaN,NaN,2.2,NaN, NaN,0.179,NaN,NaN, NaN, NaN
20060208,002300,352672,30.741300,-123.329200,NaN,16.019,33.198,41.930,  NaN,NaN,0.156, NaN, NaN,17.400, NaN,   NaN,14.60,1017.72,72.00,NaN,71.0,NaN,4.5,NaN,60.6,NaN,8.8,NaN,NaN,0.143,NaN,324.0,NaN,NaN,NaN,2,1.3,002258,   NaN,341.5,     NaN,      NaN,NaN,2.2,NaN, NaN,0.181,NaN,NaN, NaN, NaN
20060208,002330,352702,30.741500,-123.329200,NaN,16.009,33.208,41.920,  NaN,NaN,0.153, NaN, NaN,17.300, NaN,   NaN,14.60,1018.25,72.90,NaN,49.0,NaN,3.5,NaN,33.6,NaN,6.8,NaN,NaN,0.139,NaN,334.0,NaN,NaN,NaN,2,0.7,002328,   NaN,340.1,     NaN,      NaN,NaN,2.3,NaN, NaN,0.194,NaN,NaN, NaN, NaN
20060208,002400,352732,30.741700,-123.329300,NaN,15.999,33.208,41.910,  NaN,NaN,0.159, NaN, NaN,17.400, NaN,   NaN,14.60,1017.55,72.40,NaN,70.0,NaN,4.1,NaN,56.2,NaN,8.0,NaN,NaN,0.147,NaN,359.0,NaN,NaN,NaN,2,0.8,002358,   NaN,340.8,     NaN,      NaN,NaN,2.2,NaN, NaN,0.180,NaN,NaN, NaN, NaN
20060208,002430,352762,30.741800,-123.329300,NaN,15.979,33.208,41.900,  NaN,NaN,0.155, NaN, NaN,17.300, NaN,   NaN,14.60,1017.97,72.40,NaN,64.0,NaN,3.5,NaN,54.3,NaN,6.8,NaN,NaN,0.142,NaN,337.0,NaN,NaN,NaN,2,1.2,002428,   NaN,341.1,     NaN,      NaN,NaN,2.1,NaN, NaN,0.181,NaN,NaN, NaN, NaN
20060208,002500,352792,30.741800,-123.329300,NaN,15.989,33.198,41.890,  NaN,NaN,0.154, NaN, NaN,17.300, NaN,   NaN,14.60,1017.97,70.80,NaN,66.0,NaN,4.2,NaN,51.5,NaN,8.1,NaN,NaN,0.141,NaN,349.0,NaN,NaN,NaN,2,0.8,002458,   NaN,340.3,     NaN,      NaN,NaN,2.1,NaN, NaN,0.179,NaN,NaN, NaN, NaN
20060208,002530,352822,30.742000,-123.329500,NaN,15.989,33.198,41.890,  NaN,NaN,0.157, NaN, NaN,17.400, NaN,   NaN,14.60,1017.73,71.10,NaN,74.0,NaN,4.4,NaN,62.5,NaN,8.7,NaN,NaN,0.145,NaN,328.0,NaN,NaN,NaN,2,1.2,002528,   NaN,340.8,     NaN,      NaN,NaN,2.0,NaN, NaN,0.183,NaN,NaN, NaN, NaN
20060208,002600,352852,30.742200,-123.329500,NaN,15.999,33.198,41.900,  NaN,NaN,0.159, NaN, NaN,17.400, NaN,   NaN,14.60,1018.03,70.60,NaN,73.0,NaN,2.2,NaN,70.6,NaN,4.2,NaN,NaN,0.147,NaN,325.0,NaN,NaN,NaN,2,1.3,002558,   NaN,340.4,     NaN,      NaN,NaN,2.2,NaN, NaN,0.188,NaN,NaN, NaN, NaN
20060208,002630,352882,30.742200,-123.329500,NaN,15.999,33.198,41.900,  NaN,NaN,0.155, NaN, NaN,17.300, NaN,   NaN,14.60,1017.93,73.30,NaN,71.0,NaN,3.4,NaN,61.4,NaN,6.6,NaN,NaN,0.142,NaN,328.0,NaN,NaN,NaN,2,1.2,002628,   NaN,340.5,     NaN,      NaN,NaN,2.2,NaN, NaN,0.181,NaN,NaN, NaN, NaN
20060208,002700,352912,30.742300,-123.329700,NaN,15.979,33.208,41.890,  NaN,NaN,0.154, NaN, NaN,17.300, NaN,   NaN,14.60,1017.68,70.80,NaN,71.0,NaN,4.2,NaN,59.1,NaN,8.1,NaN,NaN,0.141,NaN,336.0,NaN,NaN,NaN,2,1.1,002658,   NaN,340.8,     NaN,      NaN,NaN,2.1,NaN, NaN,0.180,NaN,NaN, NaN, NaN
20060208,002730,352942,30.742500,-123.329700,NaN,15.989,33.198,41.900,  NaN,NaN,0.156, NaN, NaN,17.300, NaN,   NaN,14.60,1018.32,72.70,NaN,59.0,NaN,2.6,NaN,50.6,NaN,5.0,NaN,NaN,0.143,NaN,327.0,NaN,NaN,NaN,2,0.8,002728,   NaN,340.4,     NaN,      NaN,NaN,2.1,NaN, NaN,0.180,NaN,NaN, NaN, NaN
20060208,002800,352972,30.742500,-123.329700,NaN,15.989,33.198,41.890,  NaN,NaN,0.155, NaN, NaN,17.300, NaN,   NaN,14.60,1018.06,71.40,NaN,64.0,NaN,2.8,NaN,51.5,NaN,5.4,NaN,NaN,0.142,NaN,330.0,NaN,NaN,NaN,2,0.7,002758,   NaN,340.9,     NaN,      NaN,NaN,2.2,NaN, NaN,0.179,NaN,NaN, NaN, NaN
20060208,002830,353002,30.742700,-123.329800,NaN,15.989,33.198,41.900,  NaN,NaN,0.150, NaN, NaN,17.300, NaN,   NaN,14.60,1017.74,70.50,NaN,72.0,NaN,3.3,NaN,63.5,NaN,6.5,NaN,NaN,0.136,NaN,340.0,NaN,NaN,NaN,2,1.1,002828,   NaN,341.2,     NaN,      NaN,NaN,2.1,NaN, NaN,0.180,NaN,NaN, NaN, NaN
20060208,002900,353032,30.742800,-123.329800,NaN,15.979,33.208,41.900,  NaN,NaN,0.159, NaN, NaN,17.300, NaN,   NaN,14.60,1018.07,71.70,NaN,73.0,NaN,3.5,NaN,53.2,NaN,6.9,NaN,NaN,0.147,NaN,343.0,NaN,NaN,NaN,2,0.9,002858,   NaN,340.3,     NaN,      NaN,NaN,2.2,NaN, NaN,0.181,NaN,NaN, NaN, NaN
20060208,002930,353062,30.743000,-123.329800,NaN,15.989,33.198,41.890,  NaN,NaN,0.163, NaN, NaN,17.300, NaN,   NaN,14.60,1018.18,71.00,NaN,63.0,NaN,2.9,NaN,59.2,NaN,5.6,NaN,NaN,0.152,NaN,320.0,NaN,NaN,NaN,2,1.2,002928,   NaN,339.7,     NaN,      NaN,NaN,2.5,NaN, NaN,0.181,NaN,NaN, NaN, NaN
20060208,003000,353092,30.743200,-123.330000,NaN,16.009,33.198,41.910,  NaN,NaN,0.156, NaN, NaN,17.300, NaN,   NaN,14.60,1017.67,72.60,NaN,89.0,NaN,3.0,NaN,81.8,NaN,5.8,NaN,NaN,0.143,NaN,343.0,NaN,NaN,NaN,2,1.3,002958,   NaN,338.8,     NaN,      NaN,NaN,2.4,NaN, NaN,0.183,NaN,NaN, NaN, NaN
20060208,003030,353122,30.743300,-123.330000,NaN,15.999,33.208,41.910,  NaN,NaN,0.160, NaN, NaN,17.300, NaN,   NaN,14.60,1018.07,71.50,NaN,80.0,NaN,3.0,NaN,74.6,NaN,5.8,NaN,NaN,0.148,NaN,325.0,NaN,NaN,NaN,2,1.5,003028,   NaN,340.0,     NaN,      NaN,NaN,2.5,NaN, NaN,0.182,NaN,NaN, NaN, NaN
20060208,003100,353152,30.743500,-123.330200,NaN,15.989,33.208,41.900,  NaN,NaN,0.156, NaN, NaN,17.300, NaN,   NaN,14.60,1018.06,72.20,NaN,71.0,NaN,3.4,NaN,61.8,NaN,6.7,NaN,NaN,0.143,NaN,336.0,NaN,NaN,NaN,2,1.3,003058,   NaN,340.2,     NaN,      NaN,NaN,2.2,NaN, NaN,0.181,NaN,NaN, NaN, NaN
20060208,003130,353182,30.743500,-123.330200,NaN,15.979,33.208,41.890,  NaN,NaN,0.158, NaN, NaN,17.300, NaN,   NaN,14.60,1017.90,70.60,NaN,70.0,NaN,3.7,NaN,57.4,NaN,7.1,NaN,NaN,0.146,NaN,343.0,NaN,NaN,NaN,2,1.0,003128,   NaN,340.8,     NaN,      NaN,NaN,2.3,NaN, NaN,0.183,NaN,NaN, NaN, NaN
20060208,003200,353212,30.743700,-123.330200,NaN,15.979,33.208,41.890,  NaN,NaN,0.159, NaN, NaN,17.400, NaN,   NaN,14.60,1018.07,70.00,NaN,69.0,NaN,3.2,NaN,65.0,NaN,6.2,NaN,NaN,0.147,NaN,327.0,NaN,NaN,NaN,2,1.5,003158,   NaN,341.9,     NaN,      NaN,NaN,2.3,NaN, NaN,0.184,NaN,NaN, NaN, NaN
20060208,003230,353242,30.743800,-123.330200,NaN,15.969,33.208,41.880,  NaN,NaN,0.158, NaN, NaN,17.300, NaN,   NaN,14.60,1018.11,70.90,NaN,62.0,NaN,3.2,NaN,56.7,NaN,6.1,NaN,NaN,0.146,NaN,343.0,NaN,NaN,NaN,2,1.1,003228,   NaN,341.3,     NaN,      NaN,NaN,2.3,NaN, NaN,0.182,NaN,NaN, NaN, NaN
20060208,003300,353272,30.744000,-123.330300,NaN,15.960,33.208,41.870,  NaN,NaN,0.157, NaN, NaN,17.300, NaN,   NaN,14.60,1017.73,70.60,NaN,75.0,NaN,2.9,NaN,65.2,NaN,5.7,NaN,NaN,0.144,NaN,330.0,NaN,NaN,NaN,2,1.1,003258,   NaN,341.5,     NaN,      NaN,NaN,2.2,NaN, NaN,0.183,NaN,NaN, NaN, NaN
20060208,003330,353302,30.744000,-123.330300,NaN,15.969,33.198,41.880,  NaN,NaN,0.159, NaN, NaN,17.300, NaN,   NaN,14.60,1017.99,70.10,NaN,66.0,NaN,2.7,NaN,57.8,NaN,5.3,NaN,NaN,0.147,NaN,340.0,NaN,NaN,NaN,2,1.2,003328,   NaN,341.0,     NaN,      NaN,NaN,2.2,NaN, NaN,0.182,NaN,NaN, NaN, NaN
20060208,003400,353332,30.744200,-123.330300,NaN,15.969,33.198,41.880,  NaN,NaN,0.157, NaN, NaN,17.300, NaN,   NaN,14.60,1017.94,71.50,NaN,67.0,NaN,2.5,NaN,54.4,NaN,4.9,NaN,NaN,0.144,NaN,342.0,NaN,NaN,NaN,2,1.0,003358,   NaN,340.9,     NaN,      NaN,NaN,2.2,NaN, NaN,0.181,NaN,NaN, NaN, NaN
20060208,003430,353362,30.744300,-123.330300,NaN,15.979,33.198,41.880,  NaN,NaN,0.155, NaN, NaN,17.300, NaN,   NaN,14.60,1017.85,71.80,NaN,78.0,NaN,3.6,NaN,70.6,NaN,6.9,NaN,NaN,0.142,NaN,355.0,NaN,NaN,NaN,2,1.0,003428,   NaN,340.4,     NaN,      NaN,NaN,2.2,NaN, NaN,0.181,NaN,NaN, NaN, NaN
20060208,003500,353392,30.744500,-123.330500,NaN,15.979,33.198,41.890,  NaN,NaN,0.153, NaN, NaN,17.300, NaN,   NaN,14.80,1017.62,73.80,NaN,80.0,NaN,3.4,NaN,66.8,NaN,6.6,NaN,NaN,0.140,NaN,329.0,NaN,NaN,NaN,2,0.8,003458,   NaN,339.9,     NaN,      NaN,NaN,2.2,NaN, NaN,0.179,NaN,NaN, NaN, NaN
20060208,003530,353422,30.744700,-123.330500,NaN,15.979,33.198,41.890,  NaN,NaN,0.157, NaN, NaN,17.300, NaN,   NaN,14.60,1017.98,74.20,NaN,70.0,NaN,4.2,NaN,76.6,NaN,8.1,NaN,NaN,0.145,NaN,354.0,NaN,NaN,NaN,2,0.8,003528,   NaN,338.9,     NaN,      NaN,NaN,2.2,NaN, NaN,0.181,NaN,NaN, NaN, NaN
20060208,003600,353452,30.744700,-123.330500,NaN,15.979,33.208,41.890,  NaN,NaN,0.153, NaN, NaN,17.300, NaN,   NaN,14.80,1017.77,74.60,NaN,67.0,NaN,3.2,NaN,65.0,NaN,6.1,NaN,NaN,0.139,NaN,3.0,NaN,NaN,NaN,2,1.0,003558,   NaN,339.9,     NaN,      NaN,NaN,2.2,NaN, NaN,0.179,NaN,NaN, NaN, NaN
20060208,003630,353482,30.744800,-123.330700,NaN,15.989,33.198,41.900,  NaN,NaN,0.162, NaN, NaN,17.300, NaN,   NaN,14.60,1017.74,72.70,NaN,68.0,NaN,3.8,NaN,54.5,NaN,7.3,NaN,NaN,0.150,NaN,359.0,NaN,NaN,NaN,2,0.9,003628,   NaN,340.9,     NaN,      NaN,NaN,2.4,NaN, NaN,0.182,NaN,NaN, NaN, NaN
20060208,003700,353512,30.745000,-123.330700,NaN,15.989,33.198,41.900,  NaN,NaN,0.160, NaN, NaN,17.300, NaN,   NaN,14.60,1017.51,72.00,NaN,69.0,NaN,3.9,NaN,57.2,NaN,7.6,NaN,NaN,0.148,NaN,2.0,NaN,NaN,NaN,2,1.3,003658,   NaN,342.1,     NaN,      NaN,NaN,2.4,NaN, NaN,0.181,NaN,NaN, NaN, NaN
20060208,003730,353542,30.745200,-123.330700,NaN,15.999,33.198,41.900,  NaN,NaN,0.161, NaN, NaN,17.300, NaN,   NaN,14.60,1017.75,72.70,NaN,69.0,NaN,2.9,NaN,63.3,NaN,5.7,NaN,NaN,0.149,NaN,332.0,NaN,NaN,NaN,2,1.4,003728,   NaN,343.2,     NaN,      NaN,NaN,2.5,NaN, NaN,0.180,NaN,NaN, NaN, NaN
20060208,003800,353572,30.745300,-123.330700,NaN,15.999,33.198,41.910,  NaN,NaN,0.162, NaN, NaN,17.400, NaN,   NaN,14.60,1017.76,73.70,NaN,64.0,NaN,3.8,NaN,51.2,NaN,7.3,NaN,NaN,0.151,NaN,9.0,NaN,NaN,NaN,2,1.4,003758,   NaN,343.9,     NaN,      NaN,NaN,2.5,NaN, NaN,0.183,NaN,NaN, NaN, NaN
20060208,003830,353602,30.745500,-123.330800,NaN,15.999,33.208,41.910,  NaN,NaN,0.162, NaN, NaN,17.300, NaN,   NaN,14.60,1017.83,73.20,NaN,69.0,NaN,4.0,NaN,62.3,NaN,7.8,NaN,NaN,0.151,NaN,345.0,NaN,NaN,NaN,2,1.4,003828,   NaN,343.8,     NaN,      NaN,NaN,2.6,NaN, NaN,0.181,NaN,NaN, NaN, NaN
20060208,003900,353632,30.745700,-123.330800,NaN,15.999,33.208,41.910,  NaN,NaN,0.158, NaN, NaN,17.300, NaN,   NaN,14.60,1018.21,72.20,NaN,44.0,NaN,4.1,NaN,33.8,NaN,7.9,NaN,NaN,0.146,NaN,341.0,NaN,NaN,NaN,2,1.3,003858,   NaN,344.5,     NaN,      NaN,NaN,2.6,NaN, NaN,0.179,NaN,NaN, NaN, NaN
20060208,003930,353662,30.745800,-123.330800,NaN,15.999,33.208,41.910,  NaN,NaN,0.153, NaN, NaN,17.300, NaN,   NaN,14.60,1018.10,71.70,NaN,71.0,NaN,3.9,NaN,58.7,NaN,7.6,NaN,NaN,0.139,NaN,337.0,NaN,NaN,NaN,2,1.4,003928,   NaN,339.7,     NaN,      NaN,NaN,2.6,NaN, NaN,0.181,NaN,NaN, NaN, NaN
20060208,004000,353692,30.746000,-123.331000,NaN,15.989,33.208,41.900,  NaN,NaN,0.160, NaN, NaN,17.300, NaN,   NaN,14.60,1018.12,73.20,NaN,70.0,NaN,2.0,NaN,52.3,NaN,3.9,NaN,NaN,0.148,NaN,327.0,NaN,NaN,NaN,2,1.4,003958,   NaN,332.0,     NaN,      NaN,NaN,2.6,NaN, NaN,0.182,NaN,NaN, NaN, NaN
20060208,004030,353722,30.746200,-123.331000,NaN,15.989,33.208,41.900,  NaN,NaN,0.161, NaN, NaN,17.300, NaN,   NaN,14.60,1017.37,73.70,NaN,85.0,NaN,3.8,NaN,70.2,NaN,7.5,NaN,NaN,0.149,NaN,21.0,NaN,NaN,NaN,2,1.2,004028,   NaN,332.0,     NaN,      NaN,NaN,2.5,NaN, NaN,0.180,NaN,NaN, NaN, NaN